Regional Weather Roundup
Issued by NWS New Orleans/Baton Rouge, LA

Home | Current Version | Previous Version | Text Only | Print | Product List | Glossary On
Versions: 1 2 3 4 5 6 7 8 9 10 11 12 13 14 15 16 17 18 19 20 21 22 23 24 25 26 27 28 29 30 31 32 33 34 35 36 37 38 39 40 41 42 43 44 45 46 47 48 49 50
000
ASUS44 KLIX 031311
RWRLIX
NEW ORLEANS REGIONAL WEATHER ROUNDUP
NATIONAL WEATHER SERVICE NEW ORLEANS LA
800 AM CDT WED JUN 03 2015

NOTE: "FAIR" INDICATES FEW OR NO CLOUDS BELOW 12,000 FEET WITH NO
      SIGNIFICANT WEATHER AND/OR OBSTRUCTIONS TO VISIBILITY.
      SKY/WX - SKY CONDITION AND SIGNIFICANT WEATHER.
      TMP - AIR TEMPERATURE.     DP    - DEWPOINT TEMPERATURE.
      RH  - RELATIVE HUMIDITY.   PRES  - PRESSURE.
      HI  - HEAT INDEX.          WCI   - WIND CHILL INDEX.

*  THESE STATIONS ARE NOT NWS OR FAA STATIONS AND ARE NOT UNDER
   NWS QUALITY CONTROL.

LAZ038-040-048-061>063-065>067-069-031400-
SOUTHEAST LOUISIANA

CITY           SKY/WX    TMP DP  RH WIND       PRES   REMARKS
N.O. AUDUBON   NOT AVBL
N.O. INTL ARPT MOSUNNY   79  68  69 NE9       29.94R
N.O. LAKEFRONT SUNNY     79  69  71 E8        29.95R
SLIDELL        SUNNY     71  68  90 N3        29.95R
BATON ROUGE    SUNNY     72  64  76 NE7       29.96S
BOOTHVILLE     CLOUDY    79  68  69 NW5       29.94R
BELLE CHASSE   PTSUNNY   77  71  82 NE3       29.94R
BOGALUSA*        N/A     71  65  81 N6        29.98R
GALLIANO*      MOSUNNY   79  72  77 MISG      29.94S
NEW ROADS*       N/A    N/A N/A N/A NE5       29.97S
GONZALES*        N/A     72  67  84 NE5       29.94S
HAMMOND*       SUNNY     73  64  73 NE3       29.97R
HOUMA*         SUNNY     75 N/A N/A N5          N/A
PORT FOURCHON* SUNNY     82  72  69 NW5G13    29.95R

$$

MSZ070-080>082-031400-
SOUTHERN MISSISSIPPI

CITY           SKY/WX    TMP DP  RH WIND       PRES   REMARKS
MCCOMB         SUNNY     70  63  78 NE7       29.98S
GULFPORT       CLOUDY    73  69  87 N5        29.94R
BILOXI         CLOUDY    73  68  85 NE6       29.95R
PASCAGOULA     CLOUDY    73  67  81 E3        29.95S
STENNIS ARPT*  PTSUNNY   72  64  78 MISG      29.96R

$$

COASTAL OBSERVATIONS
LAKE AND NEARSHORE STATIONS

STATION/POSITION TIME  TEMP    WIND        PRES    WAVE
                       AIR SEA DIR/SP/G            HT/PER
                 (UTC) (F)     (DEG/KT/KT) (MB)    (FT/S)
PASCAGOULA       1200   74     310/  2/  3 1013.7
WAVELAND YACHT   1200   73 82   30/  7/ 10 1013.7
GRAND ISLE       1200   80 86  310/ 11/ 12 1013.3
SOUTHWEST PASS   1200   79 75  270/  9/ 10 1013.8
NEW CANAL        1200   77 82   50/ 10/ 11 1012.7
SHELL BEACH      1200   77 85   30/  8/ 10 1012.8

OFFSHORE STATIONS

STATION/POSITION TIME  TEMP    WIND        PRES    WAVE
                       AIR SEA DIR/SP/G            HT/PER
                 (UTC) (F)     (DEG/KT/KT) (MB)    (FT/S)
64 S DAUPHIN ISL 1250   80 82  270/  8/ 10 1013.7    1

$$




USA.gov is the U.S. government's official web portal to all federal, state and local government web resources and services.